Tracking 29892 objects as of 21-Nov-2024
HD Live streaming from Space Station
objects crossing your sky now

DMSP 5D-2 F13 DEB

Track DMSP 5D-2 F13 DEB now!
10-day predictions


NORAD ID: 42271
Int'l Code: 1995-015GM
Perigee: 730.2 km
Apogee: 734.5 km
Inclination: 98.7 °
Period: 99.3 minutes
Semi major axis: 7103 km
RCS: Unknown
Launch date: March 24, 1995
Source: United States (US)
Launch site: AIR FORCE WESTERN TEST RANGE (AFWTR)

Note: This is SATELLITE DEBRIS
Your satellite tracking list
Your tracking list is empty




NASA's NSSDC Master Catalog

Two Line Element Set (TLE):
1 42271U 95015GM  24325.05732585  .00031798  00000-0  81612-2 0  9995
2 42271  98.6907   2.4862 0002999 230.1459 129.9471 14.50130875487996
Source of the keplerian elements: AFSPC